FW9019 Weather Reports


Display with metric or nautical units.
time (UTC)temp
F
wind
direction
speed
MPH
gust
MPH
rain 1hr
in
rain 24hr
in
rain mn
in
humidity
%
barometer
mb
20260503032142 36 0.0 0.0 0.00 0.00 0.00 72 1018.1
20260503031051 36 0.0 0.0 0.00 0.00 0.00 70 1018.1
20260503030031 36 0.0 0.0 0.00 0.00 0.00 69 1018.1
20260503025113 37 0.0 0.0 0.00 0.00 0.00 69 1018.1
20260503024053 37 0.0 0.0 0.00 0.00 0.00 67 1018.1
20260503023033 38 0.0 0.0 0.00 0.00 0.00 66 1018.0
20260503022115 38 0.0 0.0 0.00 0.00 0.00 63 1018.0
20260503021055 38 0.0 0.0 0.00 0.00 0.00 62 1018.0
20260503020055 39 0.0 0.0 0.00 0.00 0.00 60 1017.8
20260503015117 40 0.0 0.0 0.00 0.00 0.00 58 1017.7
20260503014059 40 0.0 0.0 0.00 0.00 0.00 55 1017.7
20260503013037 41 0.0 0.0 0.00 0.00 0.00 53 1017.6
20260503012017 42 0.0 0.0 0.00 0.00 0.00 50 1017.7
20260503011059 44 0.0 0.0 0.00 0.00 0.00 47 1017.5
20260503010039 45 0.0 0.0 0.00 0.00 0.00 44 1017.5
20260503005019 46 0.0 0.0 0.00 0.00 0.00 39 1017.5
20260503004101 47 0.0 0.0 0.00 0.00 0.00 38 1017.5
20260503003101 47 161 0.0 1.0 0.00 0.00 0.00 37 1017.5
20260503002021 48 0.0 0.0 0.00 0.00 0.00 36 1017.4
20260503001103 48 0.0 0.0 0.00 0.00 0.00 36 1017.4
20260503000103 48 161 0.0 2.0 0.00 0.00 0.00 34 1017.4
20260502235023 49 181 1.0 3.0 0.00 0.00 0.00 35 1017.2
20260502234105 49 220 0.0 1.0 0.00 0.00 0.00 34 1017.2
20260502233045 49 244 0.0 1.0 0.00 0.00 0.00 34 1017.1
20260502232025 49 199 1.0 2.0 0.00 0.00 0.00 34 1017.3
20260502231107 50 151 1.0 2.0 0.00 0.00 0.00 33 1017.3
20260502230048 50 144 1.0 5.0 0.00 0.00 0.00 33 1017.4
20260502225027 50 159 1.0 2.0 0.00 0.00 0.00 34 1017.3
20260502224129 50 160 1.0 2.0 0.00 0.00 0.00 34 1017.5
20260502223109 50 198 1.0 3.0 0.00 0.00 0.00 33 1017.4
20260502222029 50 256 1.0 6.0 0.00 0.00 0.00 34 1017.4
20260502221111 50 166 0.0 2.0 0.00 0.00 0.00 34 1017.4
20260502220051 51 237 1.0 2.0 0.00 0.00 0.00 33 1017.4
20260502215031 51 240 2.0 5.0 0.00 0.00 0.00 33 1017.2
20260502214133 51 172 1.0 3.0 0.00 0.00 0.00 34 1017.2
20260502213113 50 170 1.0 2.0 0.00 0.00 0.00 35 1017.3
20260502212033 51 128 1.0 5.0 0.00 0.00 0.00 32 1017.1
20260502211115 52 131 1.0 3.0 0.00 0.00 0.00 32 1017.2
20260502210055 52 162 1.0 5.0 0.00 0.00 0.00 33 1017.3
20260502205055 53 198 1.0 2.0 0.00 0.00 0.00 32 1017.3
20260502204117 53 239 1.0 3.0 0.00 0.00 0.00 32 1017.2
20260502203057 54 162 1.0 2.0 0.00 0.00 0.00 31 1017.4
20260502202057 53 160 2.0 5.0 0.00 0.00 0.00 32 1017.4
20260502201017 54 206 2.0 3.0 0.00 0.00 0.00 32 1017.5
20260502200059 53 223 2.0 5.0 0.00 0.00 0.00 33 1017.5
20260502195039 52 156 1.0 3.0 0.00 0.00 0.00 32 1017.7
20260502194039 54 166 1.0 2.0 0.00 0.00 0.00 31 1017.7
20260502193101 53 142 1.0 2.0 0.00 0.00 0.00 32 1017.7
20260502192041 53 179 1.0 3.0 0.00 0.00 0.00 34 1017.8
20260502191041 53 241 1.0 3.0 0.00 0.00 0.00 33 1017.7
20260502185043 52 157 2.0 5.0 0.00 0.00 0.00 33 1018.1
20260502184023 53 211 1.0 3.0 0.00 0.00 0.00 34 1018.1
20260502183105 54 186 1.0 3.0 0.00 0.00 0.00 35 1018.1
20260502182045 53 235 1.0 3.0 0.00 0.00 0.00 35 1018.3
20260502181025 53 205 1.0 3.0 0.00 0.00 0.00 33 1018.2
20260502180107 53 141 2.0 5.0 0.00 0.00 0.00 34 1018.4
20260502170111 52 189 1.0 3.0 0.00 0.00 0.00 35 1018.7
20260502164052 51 143 1.0 3.0 0.00 0.00 0.00 34 1018.8
20260502163136 52 145 1.0 2.0 0.00 0.00 0.00 34 1018.9
20260502162022 52 216 2.0 5.0 0.00 0.00 0.00 33 1018.9
20260502161104 52 172 1.0 3.0 0.00 0.00 0.00 32 1019.0
20260502152058 52 196 1.0 2.0 0.00 0.00 0.00 31 1019.1
20260502151108 51 200 2.0 3.0 0.00 0.00 0.00 31 1019.0
20260502123028 44 254 1.0 2.0 0.00 0.00 0.00 45 1018.2
20260502122037 42 254 0.0 1.0 0.00 0.00 0.00 52 1018.1
20260502121017 39 252 0.0 1.0 0.00 0.00 0.00 58 1018.2
20260502120130 39 252 0.0 1.0 0.00 0.00 0.00 61 1018.1
20260502115141 39 251 0.0 1.0 0.00 0.00 0.00 63 1018.0
20260502114050 38 252 1.0 1.0 0.00 0.00 0.00 66 1017.7
20260502113032 38 0.0 0.0 0.00 0.00 0.00 69 1017.6
20260502112112 38 251 0.0 2.0 0.00 0.00 0.00 70 1017.6
20260502111021 37 252 0.0 1.0 0.00 0.00 0.00 71 1017.7
20260502110103 37 0.0 0.0 0.00 0.00 0.00 72 1017.7
20260502105044 38 0.0 0.0 0.00 0.00 0.00 71 1017.9
20260502104054 38 251 1.0 5.0 0.00 0.00 0.00 71 1017.9
20260502103105 38 0.0 0.0 0.00 0.00 0.00 71 1018.0
20260502102046 38 0.0 0.0 0.00 0.00 0.00 71 1017.9
20260502101026 37 0.0 0.0 0.00 0.00 0.00 71 1017.8
20260502100109 37 0.0 0.0 0.00 0.00 0.00 72 1017.7
20260502091030 36 0.0 0.0 0.00 0.00 0.00 75 1017.6
20260502090111 36 0.0 0.0 0.00 0.00 0.00 75 1017.5
20260502071139 38 0.0 0.0 0.00 0.00 0.00 73 1017.4
20260502070018 38 0.0 0.0 0.00 0.00 0.00 73 1017.6
20260502065029 39 0.0 0.0 0.00 0.00 0.00 74 1017.7
20260502064041 38 0.0 0.0 0.00 0.00 0.00 73 1017.7
20260502063052 38 0.0 0.0 0.00 0.00 0.00 73 1017.7
20260502062122 37 0.0 0.0 0.00 0.00 0.00 74 1017.7
20260502061112 37 0.0 0.0 0.00 0.00 0.00 75 1017.7
20260502060053 37 0.0 0.0 0.00 0.00 0.00 76 1017.8
20260502055103 37 0.0 0.0 0.00 0.00 0.00 76 1018.0
20260502054045 37 0.0 0.0 0.00 0.00 0.00 75 1017.9
20260502053023 38 0.0 0.0 0.00 0.00 0.00 75 1017.7
20260502052034 38 0.0 0.0 0.00 0.00 0.00 75 1017.7
20260502051117 37 0.0 0.0 0.00 0.00 0.00 76 1017.5
20260502050127 37 0.0 0.0 0.00 0.00 0.00 75 1017.7
20260502045108 38 0.0 0.0 0.00 0.00 0.00 73 1017.8
20260502044118 38 0.0 0.0 0.00 0.00 0.00 72 1017.8
20260502043027 39 0.0 0.0 0.00 0.00 0.00 72 1017.7
20260502042110 38 0.0 0.0 0.00 0.00 0.00 74 1017.7
20260502041018 38 0.0 0.0 0.00 0.00 0.00 74 1017.8
20260502040029 39 0.0 0.0 0.00 0.00 0.00 73 1017.6
20260502035113 39 0.0 0.0 0.00 0.00 0.00 71 1017.7
20260502034020 40 0.0 0.0 0.00 0.00 0.00 70 1017.7
20260502033103 41 0.0 0.0 0.00 0.00 0.00 69 1017.6